Phoenix Deer Valley, AZ

8:01 PM MST on November 11, 2019 (GMT -0700)
Phoenix-Deer Valley Municipal

Weather History for KDVT - October, 2019

Change the Weather History Date:

Monday, October 21, 2019

  Actual Average Record
Temperature  
Mean Temperature 70 °F -  
Max Temperature 84 °F 80 °F 99 °F (2003)
Min Temperature 55 °F 59 °F 55 °F (1996)
Cooling Degree Days 4    
Growing Degree Days 20 (Base 50)    
Moisture  
Dew Point 18 °F    
Average Humidity 14    
Maximum Humidity 21    
Minimum Humidity 10    
Precipitation  
Precipitation 0.00 in - - ()
Sea Level Pressure  
Sea Level Pressure 29.95 in    
Wind  
Wind Speed 5 mph ()    
Max Wind Speed 13 mph    
Max Gust Speed -    
Visibility 10.0 miles    
Events      
Averages and records for this station are not official NWS values.
T = Trace of Precipitation, MM = Missing Value Source: Averaged Metar Reports

Daily Weather History Graph

Daily Weather History Graph

Search for Another Location

Airport or City:

Astronomy

Oct. 21, 2019 Rise Set
Actual Time 6:37 AM MST 5:47 PM MST
Civil Twilight 6:12 AM MST 6:12 PM MST
Nautical Twilight 5:43 AM MST 6:41 PM MST
Astronomical Twilight 5:14 AM MST 7:10 PM MST
Moon No Moon Rise 1:49 PM MST (10/21)
Length of Visible Light 12h 00m
Length of Day
11h 09m
Waning Gibbous, 47% of the Moon is Illuminated
Oct 21
Waning Gibbous
Oct 27
New
Nov 4
First Quarter
Nov 12
Full
Nov 19
Last Quarter

Hourly Weather History & Observations

Time (MST) Temp. Dew Point Humidity Pressure Visibility Wind Dir Wind Speed Gust Speed Precip Events Conditions
12:53 AM 64.9 °F 10.9 °F 12% 29.88 in 10.0 mi North 8.1 mph - N/A   Clear
1:53 AM 66.0 °F 10.0 °F 11% 29.88 in 10.0 mi North 12.7 mph - N/A   Clear
2:53 AM 64.9 °F 10.9 °F 12% 29.88 in 10.0 mi North 8.1 mph - N/A   Clear
3:53 AM 61.0 °F 12.0 °F 15% 29.89 in 10.0 mi NNW 4.6 mph - N/A   Clear
4:53 AM 61.0 °F 12.0 °F 15% 29.91 in 10.0 mi NNE 3.5 mph - N/A   Clear
5:53 AM 60.1 °F 12.9 °F 16% 29.93 in 10.0 mi NNE 4.6 mph - N/A   Clear
6:53 AM 55.9 °F 16.0 °F 21% 29.96 in 10.0 mi East 6.9 mph - N/A   Clear
7:53 AM 61.0 °F 17.1 °F 18% 29.99 in 10.0 mi ESE 3.5 mph - N/A   Clear
8:53 AM 69.1 °F 15.1 °F 13% 30.00 in 10.0 mi ESE 3.5 mph - N/A   Clear
9:53 AM 71.1 °F 15.1 °F 12% 30.01 in 10.0 mi West 3.5 mph - N/A   Clear
10:53 AM 75.0 °F 16.0 °F 11% 30.00 in 10.0 mi Variable 5.8 mph - N/A   Clear
11:53 AM 77.0 °F 16.0 °F 10% 29.99 in 10.0 mi Calm Calm - N/A   Clear
12:53 PM 81.0 °F 19.0 °F 10% 29.96 in 10.0 mi Calm Calm - N/A   Clear
1:53 PM 82.0 °F 21.0 °F 10% 29.93 in 10.0 mi South 6.9 mph - N/A   Clear
2:53 PM 82.9 °F 23.0 °F 11% 29.92 in 10.0 mi Variable 5.8 mph - N/A   Clear
3:53 PM 84.0 °F 21.0 °F 10% 29.92 in 10.0 mi West 10.4 mph - N/A   Clear
4:53 PM 82.9 °F 23.0 °F 11% 29.93 in 10.0 mi West 8.1 mph - N/A   Clear
5:53 PM 81.0 °F 23.0 °F 12% 29.94 in 10.0 mi WSW 8.1 mph - N/A   Clear
6:53 PM 77.0 °F 24.1 °F 14% 29.96 in 10.0 mi Calm Calm - N/A   Clear
7:53 PM 73.0 °F 24.1 °F 16% 29.98 in 10.0 mi ESE 4.6 mph - N/A   Clear
8:53 PM 68.0 °F 25.0 °F 20% 29.98 in 10.0 mi East 3.5 mph - N/A   Clear
9:53 PM 64.9 °F 24.1 °F 21% 30.00 in 10.0 mi Calm Calm - N/A   Clear
10:53 PM 66.9 °F 23.0 °F 19% 30.01 in 10.0 mi NNE 10.4 mph - N/A   Clear
11:53 PM 69.1 °F 23.0 °F 18% 30.01 in 10.0 mi ENE 6.9 mph - N/A   Clear